Regional Weather Roundup
Issued by NWS

Home | Current Version | Previous Version | Graphics & Text | Print | Product List | Glossary On
Versions: 1 2 3 4 5 6 7 8 9 10 11 12 13 14 15 16 17 18 19 20 21 22 23 24 25 26 27 28 29 30 31 32 33 34 35 36 37 38 39 40 41 42 43 44 45 46 47 48 49 50
000
ASUS45 KBOU 192307
RWRCO

WEATHER ROUNDUP FOR COLORADO
NATIONAL WEATHER SERVICE DENVER/BOULDER CO
500 PM MDT TUE SEP 19 2017

NOTE: "FAIR" INDICATES FEW OR NO CLOUDS BELOW 12000 FEET WITH NO
SIGNIFICANT WEATHER AND/OR OBSTRUCTIONS TO VISIBILITY.

COZ001>005-013-030-031-200000-
...NORTHWEST COLORADO...

CITY           SKY/WX    TMP DP  RH WIND       PRES   REMARKS
CRAIG          CLOUDY    47  31  53 NW17      29.96R
HAYDEN         FAIR      50  32  50 W16       29.95R
MEEKER         PTSUNNY   53  35  50 NE20G25   29.90R
RABBIT EARS PA MOCLDY    41  32  70 W12G20    30.03R
STEAMBOAT SPGS FAIR      51  32  48 W10G18    29.91R
WALDEN         PTSUNNY   39  28  65 N25G31    29.96R
$$

COZ006>008-011-200000-
...WEST CENTRAL VALLEYS...

CITY           SKY/WX    TMP DP  RH WIND       PRES   REMARKS
GRAND JUNCTION FAIR      78  27  15 W25G31    29.74F
MONTROSE       FAIR      76  21  12 W14G26    29.85S
EAGLE          FAIR      74  25  16 SW22G31   29.81R
RIFLE          FAIR      78  24  13 SW31G41   29.76R
DELTA          FAIR      83  22  10 SW18G26   29.79S
NUCLA          FAIR      77  19  11 SW14G30   29.90F
$$

COZ017>023-064>068-200000-
...SOUTHWEST COLORADO...

CITY           SKY/WX    TMP DP  RH WIND       PRES   REMARKS
DURANGO        FAIR      75  19  12 W23G31    29.95F
CORTEZ         FAIR      79  17  10 SW22G32   29.90F
PAGOSA SPRINGS FAIR      70  10   9 SW8G23    30.02F
TELLURIDE      FAIR      65  16  15 W15G24    30.10R
WOLF CREEK PAS NOT AVBL
$$

COZ009-010-012-014-032>034-037-058>063-200000-
...CENTRAL COLORADO...

CITY           SKY/WX    TMP DP  RH WIND       PRES   REMARKS
ASPEN          FAIR      69  20  15 N13G21    29.90R
BUENA VISTA    FAIR      72  12  10 SW26G36   29.88R
COPPER MTN     FAIR      54  14  20 W21G39    30.15R
BERTHOUD PASS  FAIR      45  36  70 W29G48    30.14R
COTTONWOOD PAS FAIR      64   1   8 W15G40    30.02R
GUNNISON       FAIR      69  23  17 W21G32    29.94R
KREMMLING      FAIR      77  14   9 W24G41    29.84R
LEADVILLE      FAIR      60  13  15 W17G24    29.99R
MONARCH PASS   FAIR      50  16  25 W45G61    30.24F
SALIDA         FAIR      76  16  10 W20       29.92R
SUNLIGHT       FAIR      54  23  30 W16G31    30.10R
WILKERSON PASS FAIR      57   9  14 SW23G40   30.08S
$$

COZ069>075-200000-
...SAN LUIS VALLEY/SANGRE DE CRISTO MOUNTAINS...

CITY           SKY/WX    TMP DP  RH WIND       PRES   REMARKS
ALAMOSA        FAIR      69  14  12 SW26G40   29.94R
DEL NORTE      FAIR      70  20  15 SW26G37   29.95S
LA VETA PASS   FAIR      59  14  17 S36       30.16F
SAGUACHE       FAIR      73  23  15 N12       29.88R
$$

COZ035-036-038>040-200000-
...NORTHERN COLORADO FRONT RANGE...

CITY           SKY/WX    TMP DP  RH WIND       PRES   REMARKS
DENVER INTL AP FAIR      86  14   7 N18G26    29.61R
DMNS CITY PARK   N/A     84  18   8 NE8G30    29.60R
AURORA         MOSUNNY   85  12   6 N16G23    29.63R
FRONT RANGE AP MOSUNNY   86  16   7 N22G28    29.62R
ERIE MUNI ARPT FAIR      85  15   7 E3        29.64S
BOULDER MUN AP FAIR      86  27  11 W12G24    29.59S
CENTENNIAL     FAIR      84  12   6 N17       29.64R
BROOMFIELD     NOT AVBL
FORT COLLINS   FAIR      85  27  12 W8        29.62R
LONGMONT       FAIR      87  25  10 W15G21    29.60S
$$

COZ041-046-047-076>085-087-088-200000-
...PIKES PEAK/PALMER DIVIDE AND SOUTHERN FOOTHILLS...

CITY           SKY/WX    TMP DP  RH WIND       PRES   REMARKS
COLO. SPRINGS  PTSUNNY   80  19  10 S21G28    29.70S
A. F. ACADEMY  FAIR      79  14   8 S10G22    29.71R
SCHRIEVER AFB  FAIR      79  17   9 S20G25    29.71F
CHEYENNE MTN   NOT AVBL
ELLICOTT         N/A      1   1 100 S22       29.68F WCI -21
FALCON         FAIR      77  15   9 S17G33    29.75F
FORT CARSON    FAIR      82  12   7 SE15      29.66F
LIMON          FAIR      81  15   8 S26G35    29.64R
MONUMENT HILL  FAIR      77  18  10 W30G40    29.75R
CANON CITY     SUNNY     88  21   8 SW15G22   29.63S
WALSENBURG     FAIR      81  18   9 SW31G39   29.75S
TRINIDAD       FAIR      79  26  14 W32G44    29.72F
$$

COZ042>045-048>051-090-091-200000-
...NORTHEAST COLORADO...

CITY           SKY/WX    TMP DP  RH WIND       PRES   REMARKS
GREELEY ARPT   FAIR      72  37  28 N30G40    29.64R
AKRON          FAIR      87  12   6 W7        29.58S
BURLINGTON     FAIR      85  21   9 SW17G29   29.59S
WRAY           FAIR      88  19   8 SW8       29.53R
YUMA           FAIR      86  10   6 SW9       29.55S
STERLING       FAIR      86  34  15 N31G39    29.58R
HOLYOKE        FAIR      88  30  12 S5        29.54S
FORT MORGAN    FAIR      89  14   6 N17G30    29.61R
$$

COZ086-089-092>099-200000-
...SOUTHEAST COLORADO...

CITY           SKY/WX    TMP DP  RH WIND       PRES   REMARKS
PUEBLO         FAIR      87  20   8 S24       29.60S
LA JUNTA       FAIR      86  20   9 SW23      29.61F
LAMAR          FAIR      88  19   8 SW17G24   29.57F
SPRINGFIELD    NOT AVBL
$$



USA.gov is the U.S. government's official web portal to all federal, state and local government web resources and services.